Regional Weather Roundup
Issued by NWS Upton, NY

Current Version | Previous Version | Graphics & Text | Print | Product List | Glossary Off
Versions: 1 2 3 4 5 6 7 8 9 10 11 12 13 14 15 16 17 18 19 20 21 22 23 24 25 26 27 28 29 30 31 32 33 34 35 36 37 38 39 40 41 42 43 44 45 46 47 48 49 50

000
ASUS41 KOKX 261607
RWROKX

REGIONAL WEATHER ROUNDUP
NATIONAL WEATHER SERVICE NEW YORK NY
1200 PM EDT THU MAR 26 2015

NOTE: "FAIR" INDICATES FEW OR NO CLOUDS BELOW 12,000 FEET WITH NO
SIGNIFICANT WEATHER AND/OR OBSTRUCTIONS TO VISIBILITY.

NYZ071-072-176-178-NJZ106-104-261700-
NEW YORK CITY METRO AREA


CITY           SKY/WX    TMP DP  RH WIND       PRES   REMARKS
CENTRAL PARK   CLOUDY    49  44  83 CALM      29.89F HAZE
LAGUARDIA APRT LGT RAIN  48  45  89 S3        29.87F FOG
KENNEDY INTL   DRZL/FOG  47  43  86 SE7       29.90F VSB 1/2
NEWARK/LIBERTY LGT RAIN  47  45  93 CALM      29.88F FOG
BRNX BOT. GARD   N/A     46  45  93 SE2       29.88F
TETERBORO      LGT RAIN  48  42  80 CALM      29.87F FOG
$$

NYZ177-179-078>081-261700-
LONG ISLAND NEW YORK

CITY           SKY/WX    TMP DP  RH WIND       PRES   REMARKS
FARMINGDALE    FOG       47  45  93 S7        29.89F VSB 1
ISLIP          DRZL/FOG  45  43  93 S7        29.88F VSB 1/2
SHIRLEY        LGT RAIN  45  44  97 S7        29.91F FOG
WESTHAMPTON    LGT RAIN  45  44  97 SW5       29.92F FOG
MONTAUK POINT    N/A     43  42  97 S3        29.92F
$$

NYZ052-065-067-261700-
HUDSON VALLEY

CITY           SKY/WX    TMP DP  RH WIND       PRES   REMARKS
WHITE PLAINS   LGT RAIN  45  43  93 CALM      29.86F VSB 1
NEWBURGH       CLOUDY    45  41  87 VRB6      29.85F FOG
MONTGOMERY     CLOUDY    45  40  82 S5        29.82F
POUGHKEEPSIE   CLOUDY    45  41  86 SE3       29.83F
ALBANY         CLOUDY    43  39  86 S10G20    29.84F FOG
$$

NJZ001-105-106-008-010-013-015-019>022-104-261700-
NEW JERSEY

CITY           SKY/WX    TMP DP  RH WIND       PRES   REMARKS
NEWARK/LIBERTY LGT RAIN  47  45  93 CALM      29.88F FOG
TETERBORO      LGT RAIN  48  42  80 CALM      29.87F FOG
CALDWELL       LGT RAIN  47  41  80 CALM      29.86F
MORRISTOWN     CLOUDY    46  43  87 CALM      29.88F HAZE
SOMERVILLE     CLOUDY    47  42  83 CALM      29.85F HAZE
SUSSEX         CLOUDY    43  38  82 SW5       29.84F HAZE
ANDOVER          N/A     44  40  85 CALM      29.84F
TRENTON        LGT RAIN  48  46  93 CALM      29.86F FOG
MILLVILLE      LGT RAIN  59  57  93 S8        29.88S
ATLANTIC CITY  CLOUDY    54  52  93 S9        29.89F
WRIGHTSTOWN    LGT RAIN  59  59 100 SW9       29.84F
TOMS RIVER     CLOUDY    61  57  88 SW12      29.89F
BELMAR         CLOUDY    55  50  82 S5        29.87F
$$

PAZ047>061-062-071-261700-
EASTERN PENNSYLVANIA

CITY           SKY/WX    TMP DP  RH WIND       PRES   REMARKS
PHILADELPHIA   CLOUDY    54  51  90 CALM      29.87F FOG
ALLENTOWN      LGT RAIN  45  40  82 CALM      29.85F
SCRANTON       CLOUDY    53  43  68 W5        29.76F HAZE
$$

CTZ002-004>006-009-010-012-RIZ004-006-007-MAZ004-011-015-261700-
SOUTHERN NEW ENGLAND
 IN CT

CITY           SKY/WX    TMP DP  RH WIND       PRES   REMARKS
BRADLEY INTL   CLOUDY    45  40  82 S7        29.85F
HARTFORD       CLOUDY    45  42  89 S7        29.87F FOG
DANBURY        CLOUDY    45  40  82 CALM      29.87F HAZE
WTRBRY/OXFORD  FOG       43  37  81 CALM      29.88F VSB 1
BRIDGEPORT     LGT RAIN  45  43  93 CALM      29.88F FOG
MERIDEN        LGT RAIN  44  41  89 S6        29.88F FOG
NEW HAVEN      CLOUDY    44  42  93 S5        29.89F FOG
CHESTER        DRIZZLE   45  45 100 S5        29.90F
GROTON         LGT RAIN  44  42  93 CALM      29.91F FOG
WILLIMANTIC    LGT RAIN  46  43  89 CALM      29.89F FOG

 IN RI

CITY           SKY/WX    TMP DP  RH WIND       PRES   REMARKS
PROVIDENCE     LGT RAIN  51  45  79 S10       29.91F
BLOCK ISLAND   CLOUDY    45  41  87 SW9       29.91F VSB 1/2
WESTERLY       LGT RAIN  44  44 100 S6        29.91F VSB 1

 IN MA

CITY           SKY/WX    TMP DP  RH WIND       PRES   REMARKS
BOSTON         MOSUNNY   52  45  76 SW7       29.86F
WORCESTER      PTSUNNY   44  41  89 SW7       29.83F
WESTFIELD      CLOUDY    42  40  92 CALM      29.85F FOG
PROVINCETOWN   CLOUDY    48  45  87 SW17      29.89F
NANTUCKET      HVY RAIN  42  40  92 SW9       29.95F VSB 1/2
$$

ANZ330-335-338-340-345-350-353-355-261700-
COASTAL MARINE OBSERVATIONS


STATION/POSITION TIME  SKY/WX   TEMP    WIND        PRES    VSBY  WAVE
                                AIR SEA DIR/SP/G                  HT/PER
                 (UTC)          (F)     (DEG/KT/KT) (MB)    (MI)  (FT/S)
NY HARB ENTRANCE 1550            42 38  170/  8/ 10 1011.9          4/ 7
4S FIRE IS       1503               37                N/A           4/ 7
20S FIRE ISLAND  1450               38              1014.2          4/ 7
23SW MTP         1550                                 N/A           4/ 6
HUDSON CANYON    NOT AVBL
EXECUTION ROCKS  NOT AVBL
WESTERN LI SOUND NOT AVBL
CENTRAL LI SOUND NOT AVBL
EASTERN LI SOUND NOT AVBL
ROBBINS REEF     1500            43     200/  6/  7 1011.9
$$


>>>>>>>>>>>>>>>>>>>>>>>>>>>> KEY <<<<<<<<<<<<<<<<<<<<<<<<<<<
>                                                          <
>     SKY/WX - SKY CONDITION/PRESENT WEATHER               <
>     TMP    - TEMPERATURE IN FAHRENHEIT                   <
>     DP     - DEWPOINT IN FAHRENHEIT                      <
>     RH     - RELATIVE HUMIDITY IN PERCENT                <
>     WIND   - DIRECTION AND SPEED IN MPH                  <
>     PRES   - MEAN SEA LEVEL PRESSURE IN INCHES OF HG     <
>     WCI    - WIND CHILL INDEX                            <
>     VSB    - VISIBILITY IN MILES                         <
>     HX     - HEAT INDEX                                  <
>     TC     - TEMPERATURE IN CELSIUS                      <
>     VRB    - VARIABLE WIND DIRECTION                     <
>                                                          <
>>>>>>>>>>>>>>>>>>>>>>>>>>>> KEY <<<<<<<<<<<<<<<<<<<<<<<<<<<




USA.gov is the U.S. government's official web portal to all federal, state and local government web resources and services.